OK1VCF-5 Weather Reports


Display with metric or nautical units.
time (UTC)temp
F
wind
direction
speed
MPH
gust
MPH
rain 1hr
in
rain 24hr
in
rain mn
in
humidity
%
barometer
mb
20260506090056 67 0 0.0 0.0 0.00 0.00 0.00 61 1011.4
20260506084555 66 0 0.0 0.0 0.00 0.00 0.00 63 1011.5
20260506083057 70 0 0.0 0.0 0.00 0.00 0.00 60 1011.4
20260506081825 66 0 0.0 0.0 0.00 0.00 0.00 60 1011.5
20260506081553 66 0 0.0 0.0 0.00 0.00 0.00 60 1011.5
20260506073053 66 0 0.0 0.0 0.00 0.00 0.00 66 1011.7
20260506071551 64 0 0.0 0.0 0.00 0.00 0.00 72 1011.7
20260506061548 59 0 0.0 0.0 0.00 0.00 0.00 82 1012.0
20260506044542 54 0 0.0 0.0 0.00 0.00 0.00 94 1012.0
20260506043041 52 0 0.0 0.0 0.00 0.00 0.00 94 1012.0
20260506041542 51 0 0.0 0.0 0.00 0.00 0.00 94 1011.8
20260506040039 51 0 0.0 0.0 0.00 0.00 0.00 95 1011.4
20260506034538 51 0 0.0 0.0 0.00 0.00 0.00 96 1011.6
20260506033039 50 0 0.0 0.0 0.00 0.00 0.00 96 10.1
20260506031539 50 0 0.0 0.0 0.00 0.00 0.00 95 1011.3
20260506030038 50 0 0.0 0.0 0.00 0.00 0.00 95 1011.1
20260506024538 51 0 0.0 0.0 0.00 0.00 0.00 95 1011.2
20260506023036 51 0 0.0 0.0 0.00 0.00 0.00 95 1.0
20260506021535 0 0 0.0 0.0 0.00 0.00 0.00 95 1011.3
20260506020105 51 0 0.0 0.0 0.00 0.00 0.00 95 1011.4
20260506020033 51 0 0.0 0.0 0.00 0.00 0.00 95 1011.4
20260506014535 52 0 0.0 0.0 0.00 0.00 0.00 94 1011.2
20260506013032 52 0 0.0 0.0 0.00 0.00 0.00 94 1011.2
20260506011532 52 0 0.0 0.0 0.00 0.00 0.00 94 1011.1
20260506010032 52 0 0.0 0.0 0.00 0.00 0.00 94 1011.0
20260506004531 53 0 0.0 0.0 0.00 0.00 0.00 94 1010.9
20260506003028 54 0 0.0 0.0 0.00 0.00 0.00 94 1010.8
20260506001529 54 0 0.0 0.0 0.00 0.00 0.00 93 1010.9
20260506000508 56 0 0.0 0.0 0.00 0.00 0.00 92 1010.8
20260506000028 56 0 0.0 0.0 0.00 0.00 0.00 92 1010.8
20260505234526 56 0 0.0 0.0 0.00 0.00 0.00 92 1010.6
20260505233027 56 0 0.0 0.0 0.00 0.00 0.00 92 1010.8
20260505231526 56 0 0.0 0.0 0.00 0.00 0.00 1011.0
20260505230025 57 0 0.0 0.0 0.00 0.00 0.00 90 1011.0
20260505224524 58 0 0.0 0.0 0.00 0.00 0.00 87 1011.2
20260505223024 58 0 0.0 0.0 0.00 0.00 0.00 86 1011.0
20260505221523 0 0 0.0 0.0 0.00 0.00 0.00
20260505220022 58 0 0.0 0.0 0.00 0.00 0.00 88 1011.3
20260505214522 58 0 0.0 0.0 0.00 0.00 0.00 86 1011.0
20260505204519 61 0 0.0 0.0 0.00 0.00 0.00 75 0.1
20260505203017 62 0 0.0 0.0 0.00 0.00 0.00 71 1009.9
20260505201516 62 0 0.0 0.0 0.00 0.00 0.00 74 1009.5
20260505200017 60 0 0.0 0.0 0.00 0.00 0.00 76 1008.7
20260505194515 62 0 0.0 0.0 0.00 0.00 0.00 76 1008.5
20260505193014 62 0 0.0 0.0 0.00 0.00 0.00 74 1008.4
20260505191514 61 0 0.0 0.0 0.00 0.00 0.00 76 1007.8
20260505190013 62 0 0.0 0.0 0.00 0.00 0.00 77 1007.7
20260505184513 62 0 0.0 0.0 0.00 0.00 0.00 71 1007.7
20260505174509 65 0 0.0 0.0 0.00 0.00 0.00 63 1007.8
20260505173008 66 0 0.0 0.0 0.00 0.00 0.00 62 1008.0
20260505171507 66 0 0.0 0.0 0.00 0.00 0.00 61 1008.0
20260505170006 68 0 0.0 0.0 0.00 0.00 0.00 60 1008.1
20260505164504 68 0 0.0 0.0 0.00 0.00 0.00 62 1008.3
20260505153001 75 0 0.0 0.0 0.00 0.00 0.00 48 100.8
20260505151500 74 0 0.0 0.0 0.00 0.00 0.00 54 1008.3
20260505124453 80 0 0.0 0.0 0.00 0.00 0.00 37 1009.2
20260505121452 82 0 0.0 0.0 0.00 0.00 0.00 38 1009.6
20260505115951 80 0 0.0 0.0 0.00 0.00 0.00 39 1009.8
20260505114452 82 0 0.0 0.0 0.00 0.00 0.00 39 1010.0
20260505112949 81 0 0.0 0.0 0.00 0.00 0.00 38 1010.1
20260505111448 80 0 0.0 0.0 0.00 0.00 0.00 40 1010.3
20260505101452 79 0 0.0 0.0 0.00 0.00 0.00 44 1011.0
20260505101446 79 0 0.0 0.0 0.00 0.00 0.00 44 1011.0
20260505095947 78 0 0.0 0.0 0.00 0.00 0.00 43 1011.0
20260505094443 78 0 0.0 0.0 0.00 0.00 0.00 1.0
20260505092943 77 0 0.0 0.0 0.00 0.00 0.00 44 1011.2
20260505091442 76 0 0.0 0.0 0.00 0.00 0.00 48 1011.4